Home   Weather   Stade   Past weeks

Flag for Germany Past Weather in Stade, Lower Saxony, Germany — Yesterday and Last 2 Weeks

Now
55 °F

Fog.


Feels Like: 55 °F
Forecast: 53 / 65 °F
Wind: 1 mph from North

Location: Hamburg-Fuhlsbuettel

Current Time: Jul 27, 2017 at 2:51:07 am

Latest Report: Jul 27, 2017 at 2:20 am


Visibility: N/A

Pressure: 29.71 "Hg

Humidity: 100%

Dew Point: 55 °F

Location of StadeLocation

Past Weather in Stade — Graph

°F

Stade Temperature Yesterday

Maximum temperature yesterday: 73 °F (at 3:50 pm)
Minimum temperature yesterday: 55 °F (at 12:20 am)
Average temperature yesterday: 64 °F

High & Low Weather Summary for the Past Weeks

 TemperatureHumidityPressure
High79 °F (Jul 19, 3:20 pm)100% (Jul 12, 1:20 am)30.21 "Hg (Jul 12, 1:20 am)
Low46 °F (Jul 14, 5:50 am)35% (Jul 14, 4:50 pm)29.65 "Hg (Jul 25, 3:04 pm)
Average62 °F82%29.94 "Hg
* Reported Jul 12 1:20 am — Jul 27 1:50 am, Stade. Weather by CustomWeather, © 2017

Note: Actual official high and low records may vary slightly from our data, if they occured in-between our weather recording intervals... More about our weather records

Advertising

Stade Weather History for the Previous 24 Hours

Scroll right to see more
 ConditionsComfort  
Time TempWeatherWind HumidityBarometerVisibility
1:50 am
Thu, Jul 27
57 °FFog.1 mph94%29.71 "HgN/A
1:20 am55 °FFog.1 mph100%29.74 "HgN/A
12:50 am57 °FFog.1 mph94%29.74 "HgN/A
12:20 am55 °FFog.1 mph100%29.74 "HgN/A
11:50 pm
Wed, Jul 26
57 °FClear.1 mph94%29.74 "Hg10 mi
11:20 pm59 °FClear.1 mph94%29.74 "Hg10 mi
10:50 pm61 °FClear.1 mph88%29.74 "Hg10 mi
10:20 pm63 °FPassing clouds.2 mph77%29.74 "HgN/A
9:50 pm64 °FPassing clouds.7 mph78%29.74 "HgN/A
9:20 pm63 °FScattered clouds.5 mph83%29.74 "HgN/A
8:50 pm66 °FScattered clouds.6 mph73%29.71 "HgN/A
8:20 pm66 °FScattered clouds.9 mph73%29.71 "HgN/A
7:50 pm68 °FScattered clouds.12 mph69%29.71 "HgN/A
7:20 pm68 °FScattered clouds.15 mph69%29.71 "HgN/A
6:50 pm70 °FScattered showers. Scattered clouds.12 mph69%29.71 "HgN/A
6:20 pm68 °FScattered showers. Scattered clouds.14 mph73%29.71 "HgN/A
5:50 pm70 °FSprinkles. Scattered clouds.16 mph69%29.71 "HgN/A
5:20 pm73 °FScattered clouds.14 mph61%29.71 "HgN/A
4:50 pm73 °FScattered clouds.15 mph57%29.71 "HgN/A
4:20 pm73 °FScattered clouds.14 mph53%29.71 "HgN/A
3:50 pm73 °FScattered clouds.13 mph53%29.71 "HgN/A
3:20 pm72 °FScattered clouds.13 mph61%29.71 "HgN/A
2:50 pm70 °FScattered clouds.14 mph64%29.71 "HgN/A
2:20 pm70 °FScattered clouds.13 mph60%29.71 "HgN/A
1:50 pm70 °FScattered clouds.12 mph64%29.71 "HgN/A
1:20 pm70 °FScattered clouds.9 mph64%29.71 "HgN/A
12:50 pm70 °FScattered clouds.10 mph64%29.71 "HgN/A
12:20 pm68 °FPartly sunny.8 mph69%29.71 "HgN/A
11:50 am68 °FPartly sunny.10 mph73%29.71 "HgN/A
11:20 am66 °FBroken clouds.10 mph83%29.71 "HgN/A
10:50 am64 °FBroken clouds.10 mph88%29.71 "HgN/A
10:20 am64 °FPartly sunny.9 mph88%29.68 "HgN/A
9:50 am63 °FPartly sunny.10 mph94%29.68 "HgN/A
9:20 am61 °FPartly sunny.9 mph100%29.68 "HgN/A
8:50 am61 °FPartly sunny.8 mph94%29.68 "HgN/A
8:20 am59 °FBroken clouds.7 mph100%29.68 "HgN/A
7:50 am59 °FPartly sunny.9 mph100%29.68 "HgN/A
7:20 am59 °FPartly sunny.9 mph100%29.68 "HgN/A
6:50 am59 °FLight rain. Mostly cloudy.10 mph100%29.68 "Hg6 mi
6:20 am59 °FLight rain. Mostly cloudy.13 mph100%29.68 "Hg5 mi
5:57 am59 °FLight rain. Partly sunny.12 mph94%29.68 "Hg4 mi
5:20 am59 °FLight rain. Clear.8 mph94%29.68 "HgN/A
4:50 am57 °FLight rain. Overcast.10 mph100%29.68 "HgN/A
4:20 am59 °FLight rain. Overcast.10 mph88%29.68 "HgN/A
3:50 am57 °FLight rain. Overcast.10 mph100%29.68 "HgN/A
3:20 am57 °FLight rain. Overcast.10 mph94%29.68 "HgN/A
2:50 am57 °FLight rain. Overcast.10 mph94%29.68 "HgN/A
2:20 am57 °FLight rain. Overcast.10 mph94%29.68 "HgN/A
Weather by CustomWeather, © 2017

See weather overviewHow to use our weather pages